Temp
59 56 56 56 56 55 55 56 57 58 59 60 60 60 59 59 59 59 59 59 59 59
58 57 57 57 56 55 56 57 58 59 59 60 60 60 60 60 59 60 59 59 59 61
62 59 57 57 57 56 57 57 58 58 59 59 59 60 60 59 62 63 61 60 61 62
60 60 58 58 57 57 57 57 58 59 59 59 59 59 59 60 63 62 62 62 61 61
61 60 58 57 57 57 57 58 59 60 60 59 59 59 60 60 61 62 61 62 62 61
60 59 59 58 58 58 58 58 59 60 60 59 59 60 59 60 59 61 61 62 62 62
60 60 59 58 58 58 59 59 59 60 61 60 60 60 59 59 61 62 61 62 62 61
61 61 60 59 59 59 59 60 60 61 61 60 60 61 59 59 59 60 61 61 62 62
61 62 61 59 58 59 59 60 60 60 60 60 61 50 54 59 61 61 61 61 61 61
63 63 62 61 60 59 57 57 58 58 59 58 57 49 50 54 61 61 60 61 61 62
64 63 61 60 59 56 55 55 55 56 56 57 55 48 49 53 61 61 61 61 61 61
64 62 60 59 57 55 55 54 54 56 56 57 55 46 47 56 60 60 60 60 61 61
63 63 60 58 56 56 55 55 57 56 56 55 56 45 47 56 59 57 57 58 58 52
62 62 61 58 57 57 55 55 54 57 55 55 55 51 46 50 59 58 55 56 55 55
MSLP
1007.85 1008.20 1008.34 1008.45 1008.62 1008.76 1008.81 1008.87 1008.83 1008.78 1008.86 1008.93 1009.09 1009.04 1009.26 1009.52 1009.75 1009.88 1010.22 1010.39 1010.51 1010.64
1007.86 1008.20 1008.35 1008.47 1008.69 1008.85 1008.83 1008.92 1008.90 1008.84 1008.99 1009.13 1009.18 1009.19 1009.24 1009.54 1009.78 1010.00 1010.20 1010.47 1010.68 1010.78
1007.72 1008.01 1008.25 1008.49 1008.81 1008.94 1008.98 1009.02 1009.02 1009.11 1009.25 1009.39 1009.43 1009.51 1009.62 1009.82 1010.06 1010.14 1010.40 1010.68 1010.86 1011.05
1007.73 1007.86 1008.16 1008.49 1008.79 1008.98 1009.12 1009.10 1009.16 1009.22 1009.48 1009.63 1009.82 1009.94 1010.14 1010.30 1010.28 1010.34 1010.56 1010.85 1011.15 1011.44
1007.47 1007.73 1008.12 1008.51 1008.83 1009.03 1009.11 1009.14 1009.18 1009.36 1009.62 1009.78 1010.05 1010.29 1010.45 1010.66 1010.70 1010.74 1011.02 1011.25 1011.49 1011.88
1007.51 1007.80 1008.24 1008.51 1008.84 1009.00 1009.16 1009.33 1009.38 1009.47 1009.74 1009.97 1010.29 1010.55 1010.70 1010.99 1011.19 1011.21 1011.44 1011.62 1011.83 1012.18
1007.51 1007.88 1008.28 1008.54 1008.83 1009.06 1009.27 1009.48 1009.69 1009.79 1009.90 1010.15 1010.45 1010.78 1011.04 1011.36 1011.58 1011.69 1011.85 1012.01 1012.30 1012.64
1007.58 1007.77 1008.36 1008.65 1008.98 1009.29 1009.59 1009.69 1009.78 1010.00 1010.32 1010.59 1010.85 1011.15 1011.46 1011.67 1011.91 1012.08 1012.40 1012.55 1012.80 1013.09
1007.63 1007.97 1008.46 1008.82 1009.16 1009.33 1009.75 1009.93 1010.06 1010.23 1010.54 1010.95 1011.10 1011.39 1011.71 1011.92 1012.24 1012.54 1012.72 1013.01 1013.34 1013.67
1007.54 1008.07 1008.42 1008.86 1009.28 1009.63 1009.98 1010.09 1010.33 1010.53 1010.74 1011.13 1011.43 1011.67 1011.95 1012.16 1012.50 1012.83 1013.17 1013.31 1013.70 1014.14
1007.43 1007.92 1008.42 1008.92 1009.43 1009.79 1010.19 1010.44 1010.64 1010.90 1011.08 1011.36 1011.85 1012.04 1012.23 1012.51 1012.88 1013.26 1013.58 1013.80 1014.14 1014.48
1007.29 1007.84 1008.51 1009.03 1009.50 1009.92 1010.30 1010.65 1010.87 1011.06 1011.32 1011.64 1012.14 1012.33 1012.55 1012.86 1013.15 1013.45 1013.95 1014.29 1014.54 1014.98
1007.21 1007.67 1008.30 1008.85 1009.55 1009.90 1010.27 1010.64 1010.88 1011.30 1011.50 1011.74 1012.23 1012.63 1012.92 1013.31 1013.59 1014.06 1014.48 1014.77 1015.08 1015.42
1006.98 1007.50 1007.99 1008.62 1009.20 1009.81 1010.42 1010.90 1011.21 1011.47 1011.77 1011.97 1012.16 1012.68 1012.88 1013.22 1013.65 1014.09 1014.65 1015.12 1015.50 1015.65
Wind_Speed
5 3 2 2 2 2 3 3 2 4 3 2 4 4 5 3 3 2 2 3 3 3
5 4 4 3 3 2 4 2 3 3 4 4 4 3 5 4 5 4 4 4 5 4
5 5 5 4 4 4 3 2 3 3 3 4 4 4 5 5 5 5 4 4 8 6
5 5 5 4 4 4 3 3 3 2 4 4 5 4 6 5 5 6 6 6 8 8
6 5 5 5 5 4 4 3 4 4 4 5 5 5 7 6 5 6 7 6 9 10
5 5 4 4 5 4 5 5 4 4 5 5 6 6 5 6 6 5 5 6 7 9
6 5 5 5 6 5 5 6 5 4 5 6 5 6 6 7 8 6 5 5 6 6
6 5 6 6 5 6 5 4 5 6 5 5 5 4 6 6 6 6 6 6 6 6
6 5 7 6 6 6 6 4 5 5 6 6 3 9 10 8 6 6 6 7 7 8
6 6 6 7 6 6 5 4 4 5 6 5 5 9 10 10 6 6 5 7 8 7
6 6 7 7 6 5 4 5 5 4 5 6 5 9 10 10 6 6 6 7 7 8
6 7 7 7 7 4 5 3 4 4 6 7 6 8 10 7 5 5 6 5 5 6
7 7 7 8 7 4 4 5 5 5 4 7 6 9 11 8 4 5 4 4 3 6
7 9 7 7 5 6 5 6 5 5 3 6 5 6 9 12 5 5 4 4 3 3
Wind_Direction
154 156 168 151 136 152 121 144 158 107 97 83 83 111 142 126 143 108 98 125 131 130
157 163 154 119 116 148 121 147 144 115 91 73 82 110 119 130 128 120 118 110 91 104
161 175 153 132 141 141 127 132 129 113 100 87 97 103 99 84 112 120 99 104 105 100
154 170 162 144 153 157 145 151 142 124 117 123 126 101 86 82 100 100 103 93 104 102
154 155 166 153 163 169 155 149 152 132 115 120 114 115 112 98 101 95 93 109 115 114
151 152 161 148 149 162 145 137 139 130 128 133 132 120 97 108 99 99 91 106 104 122
156 159 140 131 144 142 137 132 130 123 121 128 123 113 112 109 117 114 73 79 96 103
130 149 120 120 135 121 123 133 132 120 104 105 117 127 118 108 108 108 95 86 76 88
138 143 132 127 144 137 136 129 139 125 123 137 140 129 123 117 114 111 109 105 99 105
165 148 148 140 141 143 139 130 132 131 122 129 127 140 122 114 105 113 108 119 116 108
162 153 144 144 145 131 114 124 136 134 123 117 118 133 132 117 105 106 108 103 105 119
159 141 147 157 155 143 126 127 138 140 134 124 141 152 138 129 109 110 117 118 127 140
155 151 162 162 159 154 139 146 134 125 131 137 135 159 157 133 121 120 117 104 138 181
167 157 164 147 151 141 135 132 135 131 129 129 143 158 169 144 146 151 147 155 174 192